Location: Marstown
(39.5056°N, 77.0820°W)
Time: 00:28:55
(UTC-04:00)

Amateur Radio Satellites - All Passes

Search period start: 24 September 2017 23:58
Search period end: 25 September 2017 23:58
Location: Marstown, 39.5056°N, 77.0820°W

Satellite Date Start Highest point End Downlink Frequencies (MHz)
Time Altitude Azimuth
ISS 25 Sep 00:01:57 00:02:18 10° 358° (N) 00:02:40 437.550
NANOSAT C BR1 25 Sep 00:02:32 00:04:32 13° 91° (E) 00:06:33 145.865
UNISAT 6 25 Sep 00:12:46 00:16:11 20° 294° (WNW) 00:19:37 437.425
PCSat 25 Sep 00:23:46 00:29:13 81° 243° (WSW) 00:34:37 145.827
DUCHIFAT 1 25 Sep 00:29:02 00:32:27 23° 95° (E) 00:35:51 145.980
AIST 2D 25 Sep 00:29:34 00:33:06 84° 281° (W) 00:36:35 435.315
YUBILEINY 25 Sep 00:33:52 00:42:28 65° 268° (W) 00:51:05 435.215
Tancredo 1 25 Sep 00:36:43 00:38:30 16° 24° (NNE) 00:40:16 437.200
TIGRISAT 25 Sep 00:37:07 00:39:18 13° 297° (WNW) 00:41:29 435.000
nSIGHT-1 25 Sep 00:39:00 00:39:44 11° 7° (N) 00:40:27 .
DX 1 25 Sep 00:42:13 00:44:41 15° 64° (ENE) 00:47:10 434.975-435.025
POLYITAN 1 25 Sep 00:44:19 00:48:27 45° 99° (E) 00:52:34 437.675
PRISM 25 Sep 00:46:55 00:49:00 14° 295° (WNW) 00:51:05 437.425
EO-79 25 Sep 00:48:11 00:52:21 50° 99° (E) 00:56:30 145.935-145.965
ESTCUBE 1 25 Sep 00:50:04 00:53:34 22° 266° (W) 00:57:05 437.505/2401.250
BUGSAT 1 25 Sep 01:00:04 01:02:05 13° 92° (E) 01:04:05 437.445
SPROUT 25 Sep 01:00:39 01:04:50 63° 258° (WSW) 01:09:04 437.525
QB50P2 25 Sep 01:02:13 01:06:31 82° 101° (E) 01:10:48 145.880/145.840
VELOX 1 25 Sep 01:11:47 01:16:09 66° 258° (WSW) 01:20:32 145.980
O/OREOS (USA 219) 25 Sep 01:30:18 01:32:53 15° 99° (E) 01:35:29 437.305
NANOSAT C BR1 25 Sep 01:36:22 01:40:31 50° 286° (WNW) 01:44:37 145.865
Gurwin Techsat 1B 25 Sep 01:37:13 01:38:54 11° 89° (E) 01:40:34 435.225
ISS 25 Sep 01:37:47 01:39:53 16° 19° (NNE) 01:42:00 437.550
Oscar 19 25 Sep 01:39:33 01:43:08 19° 93° (E) 01:46:40 437.125/150
50 SAT 25 Sep 01:56:05 01:59:17 50° 259° (W) 02:02:31 437.505
DUCHIFAT 1 25 Sep 02:04:25 02:08:04 28° 290° (WNW) 02:11:42 145.980
UKube-1 25 Sep 02:06:09 02:10:27 81° 74° (ENE) 02:14:46 .
Tancredo 1 25 Sep 02:10:32 02:13:10 55° 221° (SW) 02:15:48 437.200
M-CUBED/EXP-1 PRIME 25 Sep 02:14:00 02:17:16 76° 290° (WNW) 02:20:31 437.505
nSIGHT-1 25 Sep 02:14:10 02:16:56 25° 27° (NNE) 02:19:43 .
MOZHAYETS 4 25 Sep 02:14:51 02:16:27 12° 62° (ENE) 02:18:02
DX 1 25 Sep 02:16:16 02:20:27 48° 260° (W) 02:24:39 434.975-435.025
POLYITAN 1 25 Sep 02:21:15 02:23:50 16° 295° (WNW) 02:26:24 437.675
EO-79 25 Sep 02:25:23 02:27:40 14° 295° (WNW) 02:29:56 145.935-145.965
BUGSAT 1 25 Sep 02:33:36 02:37:40 49° 287° (WNW) 02:41:45 437.445
ITUPSAT 1 25 Sep 02:54:54 02:59:05 32° 69° (ENE) 03:03:19 437.325
O/OREOS (USA 219) 25 Sep 03:07:30 03:11:50 47° 295° (WNW) 03:16:13 437.305
ISS 25 Sep 03:13:33 03:16:50 73° 37° (NE) 03:20:06 437.550
Gurwin Techsat 1B 25 Sep 03:14:05 03:19:25 81° 285° (WNW) 03:24:44 435.225
Oscar 19 25 Sep 03:17:43 03:22:41 49° 289° (WNW) 03:27:37 437.125/150
RS-15 25 Sep 03:26:15 03:32:31 16° 96° (E) 03:38:47 29.354- 29.394
BEESAT 25 Sep 03:29:54 03:34:38 74° 75° (ENE) 03:39:26 436.000
BEESAT 3 25 Sep 03:33:24 03:35:57 16° 45° (NE) 03:38:27 437.485
AO-7 25 Sep 03:44:54 03:52:00 30° 97° (E) 03:59:00 .
MOZHAYETS 4 25 Sep 03:48:21 03:52:57 74° 259° (WSW) 03:57:36
nSIGHT-1 25 Sep 03:50:17 03:53:22 39° 223° (SW) 03:56:25 .
KKS-1 25 Sep 04:01:22 04:02:24 11° 62° (ENE) 04:03:28 437.445
CUBESAT XI-V 25 Sep 04:18:46 04:23:17 48° 73° (ENE) 04:27:48 437.345
ITAMSAT 1 25 Sep 04:25:39 04:30:41 46° 100° (E) 04:35:40 435.822/435.867
ITUPSAT 1 25 Sep 04:32:55 04:36:53 26° 264° (W) 04:40:53 437.325
AO-85 25 Sep 04:50:56 04:55:02 35° 53° (NE) 04:59:24 145.980
ISS 25 Sep 04:51:51 04:52:52 11° 232° (SW) 04:53:53 437.550
Gurwin Techsat 1B 25 Sep 04:57:32 04:58:28 10° 302° (WNW) 04:59:24 435.225
BEESAT 3 25 Sep 05:09:56 05:13:47 50° 243° (WSW) 05:17:33 437.485
BEESAT 25 Sep 05:11:58 05:12:54 10° 270° (W) 05:13:51 436.000
BEESAT 2 25 Sep 05:20:45 05:24:46 61° 56° (NE) 05:28:43 435.950
RS-15 25 Sep 05:30:36 05:42:43 73° 115° (ESE) 05:54:58 29.354- 29.394
KKS-1 25 Sep 05:33:55 05:38:20 74° 258° (WSW) 05:42:46 437.445
AO-7 25 Sep 05:37:01 05:45:05 58° 294° (WNW) 05:53:06 .
DOVE 4 25 Sep 05:37:30 05:40:53 22° 95° (E) 05:44:23 437.250
STARS 25 Sep 05:53:45 05:58:04 73° 75° (ENE) 06:02:26 437.465
CUBESAT XI-V 25 Sep 05:57:57 06:00:53 16° 268° (W) 06:03:49 437.345
ITAMSAT 1 25 Sep 06:05:54 06:09:47 22° 296° (WNW) 06:13:40 435.822/435.867
XW-2C 25 Sep 06:07:33 06:07:53 10° 90° (E) 06:08:14 145.795 - 145.815
LilacSat-2 25 Sep 06:19:51 06:22:20 16° 93° (E) 06:24:47 437.200
CUTE-I 25 Sep 06:26:00 06:29:43 19° 93° (E) 06:33:25 437.470
STRAND 1 25 Sep 06:28:38 06:31:37 16° 62° (ENE) 06:34:37 437.568
AO-85 25 Sep 06:31:31 06:35:19 26° 247° (WSW) 06:39:19 145.980
KAITUO 1B 25 Sep 06:32:04 06:34:20 15° 93° (E) 06:36:35 145.475/437.950
BEESAT 2 25 Sep 07:00:53 07:01:56 11° 253° (WSW) 07:02:59 435.950
XW-2D 25 Sep 07:04:43 07:08:29 59° 101° (E) 07:12:12 145.860 - 145.880
HO-68 25 Sep 07:10:08 07:15:21 21° 92° (E) 07:20:31 435.675
DOVE 4 25 Sep 07:14:51 07:18:34 30° 289° (WNW) 07:22:26 437.250
XW-2F 25 Sep 07:15:44 07:19:32 76° 102° (ESE) 07:23:15 145.980 - 146.000
CUTE 1.7 + AOD 2 25 Sep 07:15:56 07:18:14 14° 92° (E) 07:20:32 437.475
XW-2B 25 Sep 07:17:05 07:20:55 83° 103° (ESE) 07:24:41 145.730 - 145.750
AO-7 25 Sep 07:32:59 07:36:04 13° 315° (NW) 07:39:11 .
NUDT-PHONESAT 25 Sep 07:33:28 07:37:13 85° 283° (WNW) 07:40:54 437.300
XW-2C 25 Sep 07:38:39 07:42:21 49° 286° (WNW) 07:46:00 145.795 - 145.815
RS-15 25 Sep 07:44:57 07:56:15 40° 320° (NW) 08:07:33 29.354- 29.394
LilacSat-2 25 Sep 07:53:16 07:56:39 31° 289° (WNW) 08:00:01 437.200
CUBEBUG 2 25 Sep 08:01:06 08:05:13 29° 96° (E) 08:09:20 437.445
CUTE-I 25 Sep 08:04:52 08:10:02 52° 288° (WNW) 08:15:11 437.470
KAITUO 1B 25 Sep 08:05:04 08:08:24 31° 288° (WNW) 08:11:41 145.475/437.950
UWE-3 25 Sep 08:05:08 08:08:22 18° 92° (E) 08:11:35 435.000/436.395/437.385
STRAND 1 25 Sep 08:05:13 08:10:15 63° 259° (W) 08:15:20 437.568
SEEDS 25 Sep 08:18:47 08:22:49 46° 99° (E) 08:26:49 437.485
FO-29 25 Sep 08:20:12 08:24:21 22° 66° (ENE) 08:28:17 435.910
AAUSAT CUBESAT 2 25 Sep 08:36:28 08:40:08 31° 96° (E) 08:43:47 437.432
Oscar 11 25 Sep 08:42:42 08:44:58 14° 91° (E) 08:47:12 .
AO-73 25 Sep 08:44:37 08:48:15 23° 94° (E) 08:51:50 145.935
ZACube-1 25 Sep 08:48:17 08:52:16 28° 95° (E) 08:56:10 437.345
CUTE 1.7 + AOD 2 25 Sep 08:50:15 08:54:17 44° 287° (WNW) 08:58:16 437.475
XW-2A 25 Sep 08:54:18 08:57:44 87° 284° (WNW) 09:01:07 145.665 - 145.685
HO-68 25 Sep 08:56:27 09:03:36 69° 289° (WNW) 09:10:43 435.675
UNISAT 6 25 Sep 09:33:24 09:37:12 30° 69° (ENE) 09:41:05 437.425
CUBEBUG 2 25 Sep 09:37:42 09:41:42 28° 291° (WNW) 09:45:45 437.445
UWE-3 25 Sep 09:40:33 09:44:58 43° 288° (WNW) 09:49:22 435.000/436.395/437.385
DELFI C3 25 Sep 09:49:35 09:51:59 16° 93° (E) 09:54:23 145.870
SEEDS 25 Sep 09:55:50 09:58:05 14° 295° (WNW) 10:00:19 437.485
TIGRISAT 25 Sep 09:56:07 10:00:17 48° 73° (ENE) 10:04:35 435.000
PRISM 25 Sep 09:58:32 10:02:04 29° 70° (ENE) 10:05:35 437.425
FO-29 25 Sep 10:03:46 10:09:13 45° 260° (W) 10:14:16 435.910
RS-15 25 Sep 10:05:13 10:13:40 20° 353° (N) 10:21:58 29.354- 29.394
AAUSAT CUBESAT 2 25 Sep 10:12:24 10:15:22 20° 292° (WNW) 10:18:19 437.432
Oscar 11 25 Sep 10:17:10 10:21:21 48° 287° (WNW) 10:25:29 .
AO-73 25 Sep 10:20:24 10:24:29 33° 290° (WNW) 10:28:31 145.935
ZACube-1 25 Sep 10:24:34 10:28:25 27° 291° (WNW) 10:32:14 437.345
Max Valier Satellite 25 Sep 10:29:39 10:33:06 34° 98° (E) 10:36:31 145.860
HO-68 25 Sep 10:47:01 10:50:01 13° 308° (NW) 10:53:02 435.675
AIST 2D 25 Sep 11:02:51 11:05:54 27° 72° (ENE) 11:08:57 435.315
UNISAT 6 25 Sep 11:10:28 11:13:54 23° 266° (W) 11:17:26 437.425
DUCHIFAT 1 25 Sep 11:20:38 11:23:09 16° 65° (ENE) 11:25:40 145.980
DELFI C3 25 Sep 11:23:18 11:26:50 34° 288° (WNW) 11:30:23 145.870
EO-88 25 Sep 11:26:04 11:29:38 54° 286° (WNW) 11:33:12 145.990 - 145.960
NO-84 25 Sep 11:32:13 11:34:22 14° 125° (SE) 11:36:27 435.350 FM
PRISM 25 Sep 11:34:13 11:37:19 21° 265° (W) 11:40:26 437.425
TIGRISAT 25 Sep 11:34:59 11:37:16 14° 269° (W) 11:39:35 435.000
POLYITAN 1 25 Sep 11:35:57 11:39:36 29° 70° (ENE) 11:43:17 437.675
YUBILEINY 25 Sep 11:38:18 11:45:34 31° 84° (E) 11:52:49 435.215
O/OREOS (USA 219) 25 Sep 11:39:21 11:43:17 27° 60° (ENE) 11:47:11 437.305
EO-79 25 Sep 11:39:35 11:43:19 32° 71° (ENE) 11:47:05 145.935-145.965
QB50P2 25 Sep 11:53:29 11:57:34 52° 74° (ENE) 12:01:42 145.880/145.840
Max Valier Satellite 25 Sep 12:04:29 12:06:36 15° 293° (WNW) 12:08:44 145.860
LO-87 25 Sep 12:16:05 12:19:41 71° 101° (E) 12:23:17 145.935 - 145.965
RS-15 25 Sep 12:21:56 12:32:00 29° 29° (NNE) 12:41:38 29.354- 29.394
NANOSAT C BR1 25 Sep 12:26:50 12:31:01 79° 256° (WSW) 12:35:15 145.865
AIST 2D 25 Sep 12:36:52 12:39:06 16° 267° (W) 12:41:21 435.315
ESTCUBE 1 25 Sep 12:42:01 12:46:33 84° 105° (ESE) 12:51:01 437.505/2401.250
SPROUT 25 Sep 12:47:34 12:50:58 22° 95° (E) 12:54:20 437.525
DUCHIFAT 1 25 Sep 12:54:29 12:58:26 42° 261° (W) 13:02:27 145.980
Oscar 19 25 Sep 12:55:14 12:59:29 26° 66° (ENE) 13:03:46 437.125/150
Gurwin Techsat 1B 25 Sep 12:56:28 13:00:05 19° 63° (ENE) 13:03:42 435.225
M-CUBED/EXP-1 PRIME 25 Sep 12:57:54 13:02:11 75° 253° (WSW) 13:06:10 437.505
VELOX 1 25 Sep 13:03:02 13:06:36 24° 95° (E) 13:10:08 145.980
NO-84 25 Sep 13:07:33 13:11:28 66° 317° (NW) 13:15:06 435.350 FM
POLYITAN 1 25 Sep 13:12:07 13:15:22 22° 265° (W) 13:18:40 437.675
EO-79 25 Sep 13:16:03 13:19:07 20° 266° (W) 13:22:13 145.935-145.965
O/OREOS (USA 219) 25 Sep 13:18:40 13:22:38 29° 257° (WSW) 13:26:35 437.305
BUGSAT 1 25 Sep 13:21:48 13:25:50 83° 259° (W) 13:29:54 437.445
PCSat 25 Sep 13:23:58 13:26:49 14° 103° (ESE) 13:29:39 145.827
QB50P2 25 Sep 13:31:55 13:33:39 12° 269° (W) 13:35:24 145.880/145.840
YUBILEINY 25 Sep 13:33:23 13:41:51 55° 283° (WNW) 13:50:21 435.215
SO-50 25 Sep 13:38:58 13:43:13 43° 116° (ESE) 13:47:29 436.795
UKube-1 25 Sep 13:55:30 13:57:45 14° 92° (E) 14:00:00 .
DX 1 25 Sep 14:05:21 14:09:07 29° 97° (E) 14:12:53 434.975-435.025
SPROUT 25 Sep 14:23:06 14:26:50 29° 290° (WNW) 14:30:33 437.525
Oscar 19 25 Sep 14:33:49 14:38:36 37° 262° (W) 14:43:25 437.125/150
Gurwin Techsat 1B 25 Sep 14:34:22 14:39:34 56° 260° (W) 14:44:47 435.225
RS-15 25 Sep 14:34:44 14:46:48 79° 57° (ENE) 14:58:08 29.354- 29.394
VELOX 1 25 Sep 14:39:13 14:43:00 29° 291° (WNW) 14:46:47 145.980
AO-7 25 Sep 14:42:48 14:50:21 40° 61° (ENE) 14:57:54 .
NO-84 25 Sep 14:47:37 14:49:23 13° 335° (NNW) 14:51:06 435.350 FM
50 SAT 25 Sep 14:49:16 14:52:28 47° 285° (WNW) 14:55:38 437.505
PCSat 25 Sep 15:04:08 15:09:32 72° 300° (WNW) 15:14:59 145.827
SO-50 25 Sep 15:20:22 15:23:51 22° 314° (NW) 15:27:22 436.795
UKube-1 25 Sep 15:29:52 15:34:00 47° 288° (WNW) 15:38:08 .
BEESAT 25 Sep 15:31:43 15:35:13 20° 94° (E) 15:38:42 436.000
DX 1 25 Sep 15:41:42 15:45:09 24° 292° (WNW) 15:48:37 434.975-435.025
ITAMSAT 1 25 Sep 15:42:37 15:47:43 65° 73° (ENE) 15:52:51 435.822/435.867
MOZHAYETS 4 25 Sep 15:44:37 15:48:35 27° 96° (E) 15:52:30
CUBESAT XI-V 25 Sep 16:18:07 16:20:01 12° 90° (E) 16:21:56 437.345
ITUPSAT 1 25 Sep 16:33:07 16:37:58 85° 103° (ESE) 16:42:46 437.325
AO-7 25 Sep 16:35:05 16:42:58 46° 259° (W) 16:50:53 .
DOVE 4 25 Sep 16:42:38 16:45:50 20° 68° (ENE) 16:48:57 437.250
RS-15 25 Sep 16:48:44 16:57:51 28° 259° (WSW) 17:06:40 29.354- 29.394
PCSat 25 Sep 16:51:35 16:53:55 13° 320° (NW) 16:56:16 145.827
BEESAT 25 Sep 17:08:38 17:13:08 41° 289° (WNW) 17:17:35 436.000
MOZHAYETS 4 25 Sep 17:21:42 17:25:39 28° 291° (WNW) 17:29:33
ITAMSAT 1 25 Sep 17:24:58 17:27:36 14° 269° (W) 17:30:16 435.822/435.867
KKS-1 25 Sep 17:26:15 17:29:43 22° 95° (E) 17:33:11 437.445
HO-68 25 Sep 17:39:57 17:43:50 16° 54° (NE) 17:47:42 435.675
XW-2D 25 Sep 17:45:06 17:48:16 25° 70° (ENE) 17:51:27 145.860 - 145.880
STARS 25 Sep 17:45:24 17:47:41 14° 92° (E) 17:49:59 437.465
CUTE-I 25 Sep 17:46:41 17:51:11 29° 67° (ENE) 17:55:42 437.470
CUBESAT XI-V 25 Sep 17:53:13 17:57:47 60° 286° (WNW) 18:02:17 437.345
XW-2F 25 Sep 17:55:30 17:58:51 30° 71° (ENE) 18:02:14 145.980 - 146.000
XW-2B 25 Sep 17:57:11 18:00:38 33° 72° (ENE) 18:04:07 145.730 - 145.750
NUDT-PHONESAT 25 Sep 18:11:22 18:14:47 34° 72° (ENE) 18:18:14 437.300
ITUPSAT 1 25 Sep 18:13:51 18:15:03 11° 300° (WNW) 18:16:15 437.325
XW-2C 25 Sep 18:18:16 18:22:04 63° 76° (ENE) 18:25:54 145.795 - 145.815
DOVE 4 25 Sep 18:19:24 18:23:21 32° 263° (W) 18:27:10 437.250
Tancredo 1 25 Sep 18:28:31 18:30:57 32° 136° (SE) 18:33:24 437.200
LilacSat-2 25 Sep 18:33:11 18:37:03 76° 259° (WSW) 18:40:57 437.200
KAITUO 1B 25 Sep 18:43:02 18:46:49 84° 257° (WSW) 18:50:39 145.475/437.950
BEESAT 3 25 Sep 18:58:21 19:01:53 30° 114° (ESE) 19:05:26 437.485
CUBEBUG 2 25 Sep 18:58:53 19:02:00 20° 67° (ENE) 19:05:12 437.445
KKS-1 25 Sep 19:02:20 19:06:17 32° 290° (WNW) 19:10:15 437.445
UWE-3 25 Sep 19:02:24 19:04:22 13° 63° (ENE) 19:06:21 435.000/436.395/437.385
AO-85 25 Sep 19:08:17 19:08:52 10° 108° (ESE) 19:09:28 145.980
SEEDS 25 Sep 19:09:26 19:13:04 28° 70° (ENE) 19:16:42 437.485
BEESAT 2 25 Sep 19:12:55 19:14:42 13° 109° (ESE) 19:16:30 435.950
XW-2D 25 Sep 19:19:25 19:22:22 21° 265° (W) 19:25:21 145.860 - 145.880
STARS 25 Sep 19:20:02 19:24:17 50° 287° (WNW) 19:28:33 437.465
HO-68 25 Sep 19:23:18 19:30:27 81° 73° (ENE) 19:37:38 435.675
XW-2A 25 Sep 19:24:38 19:27:26 24° 71° (ENE) 19:30:16 145.665 - 145.685
AAUSAT CUBESAT 2 25 Sep 19:26:02 19:29:00 19° 68° (ENE) 19:31:58 437.432
CUTE-I 25 Sep 19:26:19 19:31:06 34° 263° (W) 19:35:55 437.470
XW-2F 25 Sep 19:30:25 19:33:00 17° 267° (W) 19:35:36 145.980 - 146.000
XW-2B 25 Sep 19:32:31 19:34:53 16° 267° (W) 19:37:18 145.730 - 145.750
Oscar 11 25 Sep 19:38:24 19:39:09 10° 62° (ENE) 19:39:52 .
AO-73 25 Sep 19:39:51 19:42:31 16° 65° (ENE) 19:45:14 145.935
CUTE 1.7 + AOD 2 25 Sep 19:41:08 19:45:24 74° 258° (WSW) 19:49:42 437.475
NO-84 25 Sep 19:42:16 19:45:13 43° 39° (NE) 19:47:59 435.350 FM
ZACube-1 25 Sep 19:43:33 19:46:42 20° 66° (ENE) 19:49:53 437.345
NUDT-PHONESAT 25 Sep 19:46:41 19:48:45 14° 267° (W) 19:50:51 437.300
ISS 25 Sep 19:52:44 19:55:44 35° 135° (SE) 19:58:46 437.550
Tancredo 1 25 Sep 20:03:18 20:05:26 21° 332° (NNW) 20:07:35 437.200
STRAND 1 25 Sep 20:16:33 20:21:31 47° 100° (E) 20:26:28 437.568
nSIGHT-1 25 Sep 20:27:28 20:30:41 84° 320° (NW) 20:33:56 .
JUGNU 25 Sep 20:32:05 20:32:55 10° 183° (S) 20:33:46 437.505
CUBEBUG 2 25 Sep 20:34:29 20:38:22 34° 263° (W) 20:42:22 437.445
UWE-3 25 Sep 20:36:01 20:40:15 58° 260° (W) 20:44:39 435.000/436.395/437.385
BEESAT 3 25 Sep 20:36:08 20:39:26 24° 311° (NW) 20:42:46 437.485
AO-85 25 Sep 20:44:52 20:48:42 57° 304° (NW) 20:52:35 145.980
SEEDS 25 Sep 20:45:22 20:48:43 22° 266° (W) 20:52:05 437.485
BEESAT 2 25 Sep 20:48:03 20:51:57 52° 305° (NW) 20:55:56 435.950
XW-2A 25 Sep 20:57:52 21:00:07 16° 266° (W) 21:02:23 145.665 - 145.685
AAUSAT CUBESAT 2 25 Sep 21:00:27 21:04:12 33° 263° (W) 21:07:59 437.432
Max Valier Satellite 25 Sep 21:08:36 21:10:41 15° 67° (ENE) 21:12:47 145.860
Oscar 11 25 Sep 21:10:17 21:14:38 74° 258° (WSW) 21:19:00 .
FO-29 25 Sep 21:12:47 21:17:07 22° 95° (E) 21:21:46 435.910
AO-73 25 Sep 21:14:09 21:18:19 46° 261° (W) 21:22:37 145.935
HO-68 25 Sep 21:14:31 21:18:53 17° 269° (W) 21:23:18 435.675
ZACube-1 25 Sep 21:18:40 21:22:40 36° 263° (W) 21:26:48 437.345
NO-84 25 Sep 21:21:15 21:22:09 11° 236° (WSW) 21:23:02 435.350 FM
ISS 25 Sep 21:29:23 21:32:15 27° 332° (NNW) 21:35:07 437.550
TIGRISAT 25 Sep 21:50:18 21:52:05 12° 90° (E) 21:53:53 435.000
YUBILEINY 25 Sep 21:50:28 21:54:31 14° 59° (ENE) 21:58:32 435.215
STRAND 1 25 Sep 21:56:36 22:00:20 21° 296° (WNW) 22:04:04 437.568
EO-88 25 Sep 22:02:15 22:05:48 49° 74° (ENE) 22:09:22 145.990 - 145.960
nSIGHT-1 25 Sep 22:05:16 22:07:25 16° 340° (NNW) 22:09:35 .
DELFI C3 25 Sep 22:06:45 22:10:41 74° 260° (W) 22:14:38 145.870
SO-50 25 Sep 22:10:51 22:14:59 32° 50° (NE) 22:19:09 436.795
PCSat 25 Sep 22:11:30 22:13:59 13° 41° (NE) 22:16:27 145.827
Max Valier Satellite 25 Sep 22:40:46 22:44:11 35° 262° (W) 22:47:38 145.860
LO-87 25 Sep 22:51:29 22:54:18 23° 70° (ENE) 22:57:09 145.935 - 145.965
FO-29 25 Sep 22:56:58 23:02:22 51° 288° (WNW) 23:08:21 435.910
UNISAT 6 25 Sep 23:01:27 23:06:10 78° 102° (ESE) 23:10:52 437.425
ISS 25 Sep 23:08:37 23:09:35 11° 352° (N) 23:10:34 437.550
PRISM 25 Sep 23:15:02 23:19:00 52° 101° (E) 23:22:58 437.425
TIGRISAT 25 Sep 23:24:30 23:29:10 66° 285° (WNW) 23:33:49 435.000
ESTCUBE 1 25 Sep 23:40:08 23:44:38 67° 75° (ENE) 23:49:09 437.505/2401.250
SPROUT 25 Sep 23:40:42 23:43:15 16° 65° (ENE) 23:45:49 437.525
